,

(GMT )
Granby

Weather History for CMGB - May, 2014

Change the Weather History Date:

Saturday, May 10, 2014

  Actual Average Record
Temperature  
Mean Temperature 68 °F -  
Max Temperature 77 °F - - ()
Min Temperature 58 °F - - ()
Cooling Degree Days 2    
Growing Degree Days 18 (Base 50)    
Moisture  
Dew Point 52 °F    
Average Humidity 66    
Maximum Humidity 96    
Minimum Humidity 26    
Precipitation  
Precipitation 0.00 in - - ()
Sea Level Pressure  
Sea Level Pressure 29.72 in    
Wind  
Wind Speed 8 mph ()    
Max Wind Speed 21 mph    
Max Gust Speed 34 mph    
T = Trace of Precipitation, MM = Missing Value Source: Averaged Metar Reports

Daily Weather History Graph

Daily Weather History Graph

Search for Another Location

Airport or City:

Trip Planner

Search our weather history database for the weather conditions in past years. The results will help you decide how hot, cold, wet, or windy it might be!

Date:

Astronomy

May. 10, 2014 Rise Set
Actual Time 5:27 AM EDT 8:08 PM EDT
Civil Twilight 4:53 AM EDT 8:42 PM EDT
Nautical Twilight 4:10 AM EDT 9:25 PM EDT
Astronomical Twilight 3:21 AM EDT 10:15 PM EDT
Moon 3:49 PM EDT (5/10) 3:11 AM EDT (5/10)
Length of Visible Light 15h 49m
Length of Day
14h 41m
Waxing Gibbous, 82% of the Moon is Illuminated
May 10
Waxing Gibbous
May 14
Full
May 21
Last Quarter
May 28
New
Jun 5
First Quarter

Hourly Weather History & Observations

Time (EDT) Temp. Dew Point Humidity Pressure Visibility Wind Dir Wind Speed Gust Speed Precip Events Conditions
12:00 AM 61.2 °F 53.1 °F 75% 29.86 in - South 9.2 mph 17.3 mph N/A   Unknown
12:15 AM 60.4 °F 53.8 °F 79% 29.86 in - South 9.2 mph 19.6 mph N/A   Unknown
12:30 AM 61.0 °F 54.1 °F 78% 29.86 in - South 8.1 mph 17.3 mph N/A   Unknown
12:45 AM 61.0 °F 52.7 °F 74% 29.86 in - South 6.9 mph - N/A   Unknown
1:00 AM 60.8 °F 52.7 °F 75% 29.85 in - South 4.6 mph - N/A   Unknown
1:15 AM 60.8 °F 54.9 °F 81% 29.85 in - South 5.8 mph - N/A   Unknown
1:30 AM 60.8 °F 55.4 °F 82% 29.85 in - South 6.9 mph - N/A   Unknown
1:45 AM 60.3 °F 55.4 °F 84% 29.85 in - South 6.9 mph - N/A   Unknown
2:00 AM 59.4 °F 55.8 °F 88% 29.81 in - South 5.8 mph - N/A   Unknown
2:15 AM 59.0 °F 55.9 °F 90% 29.81 in - South 5.8 mph - N/A   Unknown
2:30 AM 58.8 °F 55.9 °F 90% 29.81 in - South 5.8 mph - N/A   Unknown
2:45 AM 59.0 °F 56.1 °F 90% 29.81 in - South 5.8 mph - N/A   Unknown
3:00 AM 59.0 °F 56.1 °F 90% 29.78 in - South 6.9 mph - N/A   Unknown
3:15 AM 59.2 °F 56.3 °F 90% 29.78 in - South 6.9 mph - N/A   Unknown
3:30 AM 59.2 °F 56.7 °F 91% 29.78 in - South 5.8 mph - N/A   Unknown
3:45 AM 59.5 °F 57.2 °F 92% 29.78 in - South 6.9 mph - N/A   Unknown
4:00 AM 59.4 °F 57.2 °F 93% 29.76 in - South 6.9 mph - N/A   Unknown
4:15 AM 59.5 °F 57.6 °F 93% 29.76 in - South 5.8 mph - N/A   Unknown
4:30 AM 59.5 °F 57.6 °F 93% 29.76 in - South 6.9 mph - N/A   Unknown
4:45 AM 59.4 °F 57.6 °F 94% 29.76 in - South 6.9 mph - N/A   Unknown
5:00 AM 59.4 °F 57.9 °F 95% 29.74 in - South 8.1 mph - N/A   Unknown
5:15 AM 59.4 °F 57.9 °F 95% 29.74 in - South 6.9 mph - N/A   Unknown
5:30 AM 59.5 °F 58.3 °F 96% 29.74 in - South 6.9 mph - N/A   Unknown
5:45 AM 59.5 °F 58.3 °F 96% 29.74 in - South 6.9 mph - N/A   Unknown
6:00 AM 59.5 °F 58.3 °F 96% 29.73 in - South 6.9 mph - N/A   Unknown
6:15 AM 59.9 °F 58.6 °F 96% 29.73 in - South 6.9 mph - N/A   Unknown
6:30 AM 59.9 °F 58.5 °F 95% 29.73 in - South 6.9 mph - N/A   Unknown
6:45 AM 60.1 °F 58.6 °F 95% 29.73 in - South 6.9 mph - N/A   Unknown
7:00 AM 60.3 °F 58.6 °F 94% 29.73 in - South 8.1 mph - N/A   Unknown
7:15 AM 60.4 °F 59.0 °F 95% 29.73 in - South 6.9 mph - N/A   Unknown
7:30 AM 60.6 °F 59.2 °F 95% 29.73 in - South 8.1 mph - N/A   Unknown
7:45 AM 61.0 °F 59.4 °F 94% 29.73 in - South 8.1 mph - N/A   Unknown
8:00 AM 61.2 °F 59.5 °F 94% 29.73 in - South 8.1 mph - N/A   Unknown
8:15 AM 61.5 °F 59.7 °F 94% 29.73 in - SSW 4.6 mph - N/A   Unknown
8:30 AM 62.1 °F 60.1 °F 93% 29.73 in - SW 4.6 mph - N/A   Unknown
8:45 AM 62.8 °F 60.8 °F 93% 29.73 in - SW 5.8 mph - N/A   Unknown
9:00 AM 63.3 °F 60.6 °F 91% 29.71 in - SSW 5.8 mph - N/A   Unknown
9:15 AM 64.0 °F 61.0 °F 90% 29.71 in - SSW 5.8 mph - N/A   Unknown
9:30 AM 64.9 °F 61.3 °F 88% 29.71 in - SSW 6.9 mph - N/A   Unknown
9:45 AM 65.5 °F 61.3 °F 86% 29.71 in - SSW 5.8 mph - N/A   Unknown
10:00 AM 66.6 °F 61.5 °F 84% 29.71 in - SSW 6.9 mph - N/A   Unknown
10:15 AM 65.7 °F 61.0 °F 85% 29.71 in - SSW 5.8 mph - N/A   Unknown
10:30 AM 65.7 °F 61.2 °F 85% 29.71 in - SSW 5.8 mph - N/A   Unknown
10:45 AM 67.1 °F 61.9 °F 83% 29.71 in - SW 5.8 mph - N/A   Unknown
11:00 AM 68.5 °F 61.9 °F 79% 29.70 in - SW 6.9 mph - N/A   Unknown
11:15 AM 69.1 °F 61.3 °F 76% 29.70 in - SW 9.2 mph - N/A   Unknown
11:30 AM 70.9 °F 63.0 °F 76% 29.70 in - SW 9.2 mph 18.4 mph N/A   Unknown
11:45 AM 71.1 °F 62.4 °F 74% 29.70 in - SW 9.2 mph 17.3 mph N/A   Unknown
12:00 PM 71.4 °F 59.9 °F 67% 29.69 in - SW 9.2 mph - N/A   Unknown
12:15 PM 72.1 °F 61.9 °F 70% 29.68 in - SSW 9.2 mph - N/A   Unknown
12:30 PM 72.9 °F 62.1 °F 69% 29.68 in - SW 9.2 mph 18.4 mph N/A   Unknown
12:45 PM 73.2 °F 60.8 °F 65% 29.68 in - SSW 9.2 mph 17.3 mph N/A   Unknown
1:00 PM 73.4 °F 59.2 °F 61% 29.66 in - SW 11.5 mph 18.4 mph N/A   Unknown
1:15 PM 74.5 °F 58.6 °F 58% 29.66 in - SW 10.4 mph 19.6 mph N/A   Unknown
1:30 PM 75.0 °F 57.2 °F 54% 29.66 in - SW 9.2 mph 20.7 mph N/A   Unknown
1:45 PM 75.2 °F 57.2 °F 53% 29.66 in - SSW 11.5 mph - N/A   Unknown
2:00 PM 75.6 °F 56.8 °F 52% 29.65 in - SW 9.2 mph 18.4 mph N/A   Unknown
2:15 PM 76.6 °F 55.4 °F 48% 29.65 in - SW 11.5 mph 19.6 mph N/A   Unknown
2:30 PM 77.2 °F 45.1 °F 32% 29.65 in - WSW 15.0 mph 25.3 mph N/A   Unknown
2:45 PM 77.7 °F 45.3 °F 32% 29.65 in - WSW 17.3 mph 27.6 mph N/A   Unknown
3:00 PM 77.4 °F 46.0 °F 33% 29.63 in - WSW 19.6 mph 32.2 mph N/A   Unknown
3:15 PM 77.0 °F 39.2 °F 26% 29.63 in - WSW 20.7 mph 31.1 mph N/A   Unknown
3:30 PM 77.0 °F 39.9 °F 26% 29.63 in - WSW 19.6 mph 34.5 mph N/A   Unknown
3:45 PM 76.8 °F 43.0 °F 30% 29.63 in - WSW 18.4 mph 29.9 mph N/A   Unknown
4:00 PM 76.8 °F 42.3 °F 29% 29.62 in - WSW 18.4 mph 28.8 mph N/A   Unknown
4:15 PM 77.2 °F 44.4 °F 31% 29.62 in - WSW 13.8 mph 24.2 mph N/A   Unknown
4:30 PM 76.1 °F 41.5 °F 29% 29.62 in - SW 17.3 mph 25.3 mph N/A   Unknown
4:45 PM 76.6 °F 41.2 °F 28% 29.62 in - WSW 16.1 mph 26.5 mph N/A   Unknown
5:00 PM 74.3 °F 41.5 °F 31% 29.63 in - WSW 13.8 mph 24.2 mph N/A   Unknown
5:15 PM 75.0 °F 38.3 °F 26% 29.63 in - WSW 17.3 mph 25.3 mph N/A   Unknown
5:30 PM 74.3 °F 39.2 °F 28% 29.63 in - WSW 17.3 mph 27.6 mph N/A   Unknown
5:45 PM 73.2 °F 38.7 °F 29% 29.63 in - WSW 17.3 mph 26.5 mph N/A   Unknown
6:00 PM 73.9 °F 40.5 °F 30% 29.65 in - WSW 13.8 mph 21.9 mph N/A   Unknown
6:15 PM 72.9 °F 41.4 °F 32% 29.65 in - WSW 16.1 mph 26.5 mph N/A   Unknown
6:30 PM 72.3 °F 43.0 °F 35% 29.65 in - WSW 13.8 mph 20.7 mph N/A   Unknown
7:00 PM 70.0 °F 42.4 °F 37% 29.67 in - West 11.5 mph 19.6 mph N/A   Unknown
7:15 PM 69.1 °F 41.0 °F 36% 29.67 in - WSW 12.7 mph 20.7 mph N/A   Unknown
7:30 PM 68.2 °F 41.2 °F 37% 29.67 in - WSW 12.7 mph 20.7 mph N/A   Unknown
7:45 PM 67.8 °F 41.4 °F 38% 29.67 in - WSW 10.4 mph - N/A   Unknown
8:00 PM 66.9 °F 41.7 °F 40% 29.69 in - WSW 10.4 mph 17.3 mph N/A   Unknown
8:15 PM 66.4 °F 41.9 °F 41% 29.69 in - WSW 9.2 mph - N/A   Unknown
8:30 PM 65.1 °F 41.9 °F 43% 29.69 in - WSW 8.1 mph - N/A   Unknown
9:00 PM 64.6 °F 42.1 °F 44% 29.70 in - SW 10.4 mph - N/A   Unknown
9:15 PM 64.4 °F 42.3 °F 44% 29.70 in - WSW 10.4 mph 17.3 mph N/A   Unknown
9:30 PM 64.0 °F 42.3 °F 45% 29.70 in - SW 9.2 mph 17.3 mph N/A   Unknown
9:45 PM 61.7 °F 42.4 °F 49% 29.70 in - SW 11.5 mph 18.4 mph N/A   Unknown
10:00 PM 62.8 °F 42.6 °F 48% 29.72 in - SW 10.4 mph - N/A   Unknown
10:15 PM 62.1 °F 42.8 °F 49% 29.72 in - SW 9.2 mph - N/A   Unknown
10:30 PM 61.2 °F 43.2 °F 52% 29.72 in - SW 6.9 mph - N/A   Unknown
10:45 PM 61.2 °F 42.8 °F 51% 29.72 in - WSW 9.2 mph - N/A   Unknown
11:00 PM 61.2 °F 42.6 °F 51% 29.75 in - WSW 10.4 mph 18.4 mph N/A   Unknown
11:15 PM 60.4 °F 43.0 °F 53% 29.75 in - WSW 9.2 mph 19.6 mph N/A   Unknown
11:30 PM 59.9 °F 43.2 °F 54% 29.75 in - WSW 10.4 mph 19.6 mph N/A   Unknown
11:45 PM 59.4 °F 41.9 °F 52% 29.75 in - WSW 9.2 mph - N/A   Unknown